Weather History for Cork, Ireland

Change the Weather History Date:

Wednesday, May 14, 2014

  Actual Average Record
Temperature  
Mean Temperature 52 °F -  
Max Temperature 59 °F 59 °F 66 °F (1998)
Min Temperature 44 °F 46 °F 39 °F (2003)
Degree Days  
Heating Degree Days 14    
Growing Degree Days 2 (Base 50)    
Moisture  
Dew Point 48 °F    
Average Humidity 85    
Maximum Humidity 100    
Minimum Humidity 70    
Precipitation  
Precipitation 0.00 in 0.10 in - ()
Sea Level Pressure  
Sea Level Pressure 30.50 in    
Wind  
Wind Speed 5 mph ()    
Max Wind Speed 11 mph    
Max Gust Speed -    
Visibility 7.2 miles    
Events      
Averages and records for this station are not official NWS values.
T = Trace of Precipitation, MM = Missing Value Source: Averaged Metar Reports

Daily Weather History Graph

Daily Weather History Graph

Search for Another Location

Airport:

Trip Planner

Search our weather history database for the weather conditions in past years. The results will help you decide how hot, cold, wet, or windy it might be!

Date:

Astronomy

May. 14, 2014 Rise Set
Actual Time 5:42 AM IST 9:19 PM IST
Civil Twilight 5:00 AM IST 10:00 PM IST
Nautical Twilight 4:04 AM IST 10:58 PM IST
Astronomical Twilight 2:38 AM IST 12:26 AM IST
Moon 9:05 PM IST (5/14) 5:39 AM IST (5/14)
Length of Visible Light 17h 00m
Length of Day
15h 36m
Full, 100% of the Moon is Illuminated
May 14
Full
May 14
Full
May 21
Last Quarter
May 28
New
Jun 5
First Quarter

Hourly Weather History & Observations

Time (IST) Temp. Windchill Dew Point Humidity Pressure Visibility Wind Dir Wind Speed Gust Speed Precip Events Conditions
12:00 AM 48 °F - 42 °F 75% 30.44 in 25 mi NW 6.7 mph - -   Scattered Clouds
12:00 AM 48.2 °F - 42.8 °F 82% 30.42 in 6.2 mi NW 6.9 mph - N/A   Mostly Cloudy
12:30 AM 48.2 °F - 42.8 °F 82% 30.42 in 6.2 mi NW 3.5 mph - N/A   Mostly Cloudy
1:00 AM 47 °F - 42 °F 75% 30.45 in 25 mi WNW 4.5 mph - -   Scattered Clouds
1:00 AM 48.2 °F - 41.0 °F 76% 30.42 in 6.2 mi WNW 4.6 mph - N/A   Mostly Cloudy
1:30 AM 48.2 °F - 41.0 °F 76% 30.42 in 6.2 mi West 5.8 mph - N/A   Mostly Cloudy
2:00 AM 48 °F - 41 °F 70% 30.46 in 25 mi WNW 6.7 mph - -   Scattered Clouds
2:00 AM 48.2 °F - 41.0 °F 76% 30.42 in 6.2 mi WNW 5.8 mph - N/A   Mostly Cloudy
2:30 AM 46.4 °F 44.3 °F 41.0 °F 81% 30.42 in 6.2 mi West 4.6 mph - N/A   Mostly Cloudy
3:00 AM 47 °F - 42 °F 76% 30.46 in 25 mi West 4.5 mph - -   Mostly Cloudy
3:00 AM 48.2 °F - 41.0 °F 76% 30.45 in 6.2 mi West 4.6 mph - N/A   Mostly Cloudy
3:30 AM 46.4 °F 45.2 °F 41.0 °F 81% 30.42 in 6.2 mi SSW 3.5 mph - N/A   Mostly Cloudy
4:00 AM 45 °F - 42 °F 83% 30.46 in 22 mi SSW 4.5 mph - -   Mostly Cloudy
4:00 AM 44.6 °F 43.1 °F 41.0 °F 87% 30.42 in 6.2 mi SSW 3.5 mph - N/A   Mostly Cloudy
4:30 AM 44.6 °F 43.1 °F 42.8 °F 93% 30.45 in 6.2 mi SSW 3.5 mph - N/A   Mostly Cloudy
5:00 AM 46 °F - 43 °F 85% 30.46 in 19 mi SSW 2.2 mph - -   Mostly Cloudy
5:00 AM 46.4 °F - 42.8 °F 87% 30.45 in 6.2 mi SSW 2.3 mph - N/A   Mostly Cloudy
5:30 AM 46.4 °F 44.3 °F 42.8 °F 87% 30.45 in 6.2 mi SSW 4.6 mph - N/A   Mostly Cloudy
6:00 AM 46 °F - 44 °F 88% 30.47 in 16 mi South 4.5 mph - -   Mostly Cloudy
6:00 AM 46.4 °F 45.2 °F 42.8 °F 87% 30.45 in 6.2 mi South 3.5 mph - N/A   Mostly Cloudy
6:30 AM 46.4 °F 44.3 °F 44.6 °F 93% 30.45 in 6.2 mi South 4.6 mph - N/A   Mostly Cloudy
7:00 AM 47 °F - 45 °F 91% 30.47 in 19 mi SSW 4.5 mph - -   Mostly Cloudy
7:00 AM 46.4 °F 44.3 °F 44.6 °F 93% 30.45 in 6.2 mi SSW 4.6 mph - N/A   Mostly Cloudy
7:30 AM 48.2 °F - 46.4 °F 93% 30.45 in 6.2 mi SSW 4.6 mph - N/A   Mostly Cloudy
8:00 AM 49 °F - 48 °F 93% 30.49 in 14 mi SSW 4.5 mph - -   Mostly Cloudy
8:00 AM 48.2 °F - 48.2 °F 100% 30.45 in 6.2 mi SSW 4.6 mph - N/A   Mostly Cloudy
8:30 AM 50.0 °F - 48.2 °F 94% 30.48 in 6.2 mi SW 5.8 mph - N/A   Mostly Cloudy
9:00 AM 51 °F - 49 °F 91% 30.49 in 17 mi SW 6.7 mph - -   Mostly Cloudy
9:00 AM 50.0 °F - 48.2 °F 94% 30.48 in 6.2 mi SW 6.9 mph - N/A   Mostly Cloudy
9:30 AM 51.8 °F - 50.0 °F 94% 30.48 in 6.2 mi SW 9.2 mph - N/A   Mostly Cloudy
10:00 AM 52 °F - 50 °F 90% 30.51 in 22 mi WSW 8.9 mph - -   Mostly Cloudy
10:00 AM 51.8 °F - 50.0 °F 94% 30.48 in 6.2 mi WSW 9.2 mph - N/A   Mostly Cloudy
10:30 AM 53.6 °F - 50.0 °F 88% 30.48 in 6.2 mi WSW 10.4 mph - N/A   Mostly Cloudy
11:00 AM 54 °F - 50 °F 82% 30.51 in 25 mi WSW 11.2 mph - -   Mostly Cloudy
11:00 AM 53.6 °F - 50.0 °F 88% 30.51 in 6.2 mi WSW 10.4 mph - N/A   Mostly Cloudy
11:30 AM 55.4 °F - 50.0 °F 82% 30.51 in 6.2 mi WSW 9.2 mph - N/A   Mostly Cloudy
12:00 PM 56 °F - 51 °F 77% 30.53 in 25 mi WSW 8.9 mph - -   Mostly Cloudy
12:00 PM 55.4 °F - 50.0 °F 82% 30.51 in 6.2 mi WSW 8.1 mph - N/A   Mostly Cloudy
12:30 PM 55.4 °F - 50.0 °F 82% 30.51 in 6.2 mi WSW 8.1 mph - N/A   Mostly Cloudy
1:00 PM 56 °F - 51 °F 77% 30.53 in 25 mi WSW 8.9 mph - -   Mostly Cloudy
1:00 PM 55.4 °F - 51.8 °F 88% 30.51 in 6.2 mi WSW 8.1 mph - N/A   Mostly Cloudy
1:30 PM 55.4 °F - 50.0 °F 82% 30.51 in 6.2 mi WSW 6.9 mph - N/A   Mostly Cloudy
2:00 PM 56 °F - 51 °F 79% 30.54 in 28 mi WSW 8.9 mph - -   Mostly Cloudy
2:00 PM 55.4 °F - 51.8 °F 88% 30.51 in 6.2 mi WSW 8.1 mph - N/A   Mostly Cloudy
2:30 PM 57.2 °F - 51.8 °F 82% 30.51 in 6.2 mi WSW 9.2 mph - N/A   Mostly Cloudy
3:00 PM 57 °F - 51 °F 75% 30.54 in 25 mi WSW 6.7 mph - -   Mostly Cloudy
3:00 PM 57.2 °F - 51.8 °F 82% 30.54 in 6.2 mi WSW 6.9 mph - N/A   Mostly Cloudy
3:30 PM 57.2 °F - 51.8 °F 82% 30.54 in 6.2 mi WSW 8.1 mph - N/A   Mostly Cloudy
4:00 PM 57 °F - 53 °F 81% 30.55 in 25 mi SW 8.9 mph - -   Mostly Cloudy
4:00 PM 57.2 °F - 53.6 °F 88% 30.54 in 6.2 mi SW 8.1 mph - N/A   Mostly Cloudy
4:30 PM 57.2 °F - 53.6 °F 88% 30.54 in 6.2 mi SW 8.1 mph - N/A   Mostly Cloudy
5:00 PM 58 °F - 53 °F 79% 30.54 in 25 mi WSW 8.9 mph - -   Mostly Cloudy
5:00 PM 57.2 °F - 53.6 °F 88% 30.54 in 6.2 mi WSW 8.1 mph - N/A   Mostly Cloudy
5:30 PM 57.2 °F - 51.8 °F 82% 30.54 in 6.2 mi WSW 6.9 mph - N/A   Mostly Cloudy
6:00 PM 58 °F - 52 °F 75% 30.55 in 28 mi WSW 6.7 mph - -   Mostly Cloudy
6:00 PM 57.2 °F - 51.8 °F 82% 30.54 in 6.2 mi WSW 5.8 mph - N/A   Mostly Cloudy
6:30 PM 57.2 °F - 51.8 °F 82% 30.54 in 6.2 mi WSW 4.6 mph - N/A   Mostly Cloudy
7:00 PM 58 °F - 52 °F 76% 30.55 in 28 mi WSW 4.5 mph - -   Mostly Cloudy
7:00 PM 57.2 °F - 51.8 °F 82% 30.54 in 6.2 mi WSW 3.5 mph - N/A   Mostly Cloudy
7:30 PM 57.2 °F - 51.8 °F 82% 30.54 in 6.2 mi West 4.6 mph - N/A   Mostly Cloudy
8:00 PM 58 °F - 52 °F 73% 30.55 in 28 mi WSW 4.5 mph - -   Mostly Cloudy
8:00 PM 59.0 °F - 51.8 °F 77% 30.54 in 6.2 mi Variable 3.5 mph - N/A   Mostly Cloudy
8:30 PM 57.2 °F - 51.8 °F 82% 30.54 in 6.2 mi WSW 3.5 mph - N/A   Mostly Cloudy
9:00 PM 56 °F - 52 °F 83% 30.57 in 25 mi South 4.5 mph - -   Mostly Cloudy
9:00 PM 55.4 °F - 51.8 °F 88% 30.54 in 6.2 mi South 3.5 mph - N/A   Mostly Cloudy
9:30 PM 55.4 °F - 51.8 °F 88% 30.57 in 6.2 mi South 4.6 mph - N/A   Mostly Cloudy
10:00 PM 53 °F - 51 °F 92% 30.58 in 25 mi SW 2.2 mph - -   Mostly Cloudy
10:00 PM 53.6 °F - 51.8 °F 94% 30.57 in 6.2 mi SW 2.3 mph - N/A   Mostly Cloudy
10:30 PM 51.8 °F - 50.0 °F 94% 30.57 in 6.2 mi Variable 3.5 mph - N/A   Scattered Clouds
11:00 PM 51 °F - 50 °F 94% 30.58 in 25 mi SSW 4.5 mph - -   Partly Cloudy
11:00 PM 51.8 °F - 50.0 °F 94% 30.57 in 6.2 mi SSW 4.6 mph - N/A   Scattered Clouds
11:30 PM 51.8 °F - 50.0 °F 94% 30.57 in 6.2 mi WSW 4.6 mph - N/A   Scattered Clouds